Weather Roundup
Issued by NWS Springfield, MO

Home | Current Version | Previous Version | Text Only | Print | Product List | Glossary On
Versions: 1 2 3 4 5 6 7 8 9 10 11 12 13 14 15 16 17 18 19 20 21 22 23 24 25 26 27 28 29 30 31 32 33 34 35 36 37 38 39 40 41 42 43 44 45 46 47 48 49 50
000
NZUS99 KSGF 300007
HRRSGF

HOURLY WEATHER
NATIONAL WEATHER SERVICE SPRINGFIELD MO
700 PM CDT FRI AUG 29 2014

......SGF CWA......

CITY           SKY/WX    TMP DP  RH WIND       PRES   REMARKS
SPRINGFIELD    CLOUDY    84  64  50 W8        29.88S
6HR MIN TEMP:  75; 6HR MAX TEMP:  89; 6HR PCP:  0.05;

WEST PLAINS    MOCLDY    75  67  76 S6        29.94R
6HR MIN TEMP:  73; 6HR MAX TEMP:  90; 6HR PCP:  0.01;

OSAGE BEACH    CLOUDY    77  66  69 SW7       29.85F
BRANSON        MOCLDY    75  68  78 S9        29.93

......SURROUNDING SGF CWA......

CITY           SKY/WX    TMP DP  RH WIND       PRES   REMARKS
CHANUTE        MOSUNNY   85  63  47 SW14      29.84R
COFFEYVILLE    PTSUNNY   85  66  53 S12       29.84S
GROVE OK       PTCLDY    86  63  45 S7        29.88F
ROGERS AR      PTCLDY    80  66  62 S15       29.93R
SILOAM SPRINGS   N/A     81  64  57 S14       29.92S
HARRISON AR    CLOUDY    73  69  87 S6        29.93S
NEAR YELLVILLE MOCLDY    75  66  73 SW6       29.91S

......KANSAS AND MISSOURI......

CITY           SKY/WX    TMP DP  RH WIND       PRES   REMARKS
KANSAS CTY INT TSTM      74  69  85 S24G35    29.81R
DOWNTOWN KC    PTCLDY    83  67  58 S10       29.78F
COLUMBIA       MOCLDY    78  73  84 S7        29.85S
ST JOSEPH      NOT AVBL
ST LOUIS       MOCLDY    85  67  54 W12       29.86R
SPIRIT OF STL  CLOUDY    77  69  76 W5        29.85S
KIRKSVILLE     MOCLDY    78  71  79 SW9       29.83S
WICHITA        TSTM      75  70  83 S12       29.85R
TOPEKA         PTSUNNY   79  66  64 VRB5      29.81R

......TENNESSEE......

CITY           SKY/WX    TMP DP  RH WIND       PRES   REMARKS
MEMPHIS        PTCLDY    88  66  48 S9        29.93R HX  90
NASHVILLE      PTCLDY    87  60  40 S9        30.00R

......ARKANSAS.......

CITY           SKY/WX    TMP DP  RH WIND       PRES   REMARKS
FAYETTEVILLE   PTCLDY    77  68  73 S13       29.93S
FT SMITH       PTCLDY    79  71  76 SE5       29.89F
LITTLE ROCK    MOCLDY    82  69  64 SE7       29.91R

......OKLAHOMA.......

CITY           SKY/WX    TMP DP  RH WIND       PRES   REMARKS
TULSA          NOT AVBL
MCALESTER      PTSUNNY   84  71  65 S5        29.87S
OKLAHOMA CITY  MOSUNNY   82  66  58 S14       29.87F

......IOWA............

CITY           SKY/WX    TMP DP  RH WIND       PRES   REMARKS
DES MOINES     CLOUDY    72  68  87 SW6       29.77F
QUAD CITIES    CLOUDY    80  71  74 SE6       29.81S

......ILLINOIS........

CITY           SKY/WX    TMP DP  RH WIND       PRES   REMARKS
QUINCY         MOCLDY    73  71  93 SE5       29.84R
CHICAGO        MOCLDY    82  70  66 S14       29.88S




USA.gov is the U.S. government's official web portal to all federal, state and local government web resources and services.